Sturgeon Bay, WI

9:52 PM CDT on October 15, 2019 (GMT -0500)
Door County Cherryland

Weather History for KSUE - August, 2019

Change the Weather History Date:

Friday, August 30, 2019

  Actual Average Record
Temperature  
Mean Temperature 62 °F -  
Max Temperature 70 °F 77 °F 95 °F (1969)
Min Temperature 55 °F 56 °F 32 °F (1934)
Degree Days  
Heating Degree Days 3    
Growing Degree Days 12 (Base 50)    
Moisture  
Dew Point 49 °F    
Average Humidity 67    
Maximum Humidity 86    
Minimum Humidity 44    
Precipitation  
Precipitation 0.00 in - - ()
Sea Level Pressure  
Sea Level Pressure 30.10 in    
Wind  
Wind Speed 7 mph (West)    
Max Wind Speed 14 mph    
Max Gust Speed 18 mph    
Visibility 10 miles    
Events      
Averages and records for this station are not official NWS values.
T = Trace of Precipitation, MM = Missing Value Source: NWS Daily Summary

Daily Weather History Graph

Daily Weather History Graph

Search for Another Location

Airport or City:

Astronomy

Aug. 30, 2019 Rise Set
Actual Time 6:09 AM CDT 7:30 PM CDT
Civil Twilight 5:38 AM CDT 8:00 PM CDT
Nautical Twilight 5:02 AM CDT 8:37 PM CDT
Astronomical Twilight 4:23 AM CDT 9:16 PM CDT
Moon 6:07 AM CDT (8/30) 8:07 PM CDT (8/30)
Length of Visible Light 14h 21m
Length of Day
13h 21m
New Moon, 0% of the Moon is Illuminated
Aug 30
New Moon
Sep 5
First Quarter
Sep 13
Full
Sep 21
Last Quarter
Sep 28
New

Hourly Weather History & Observations

Time (CDT) Temp. Dew Point Humidity Pressure Visibility Wind Dir Wind Speed Gust Speed Precip Events Conditions
12:56 AM 60.1 °F 51.1 °F 72% 29.94 in 10.0 mi WNW 8.1 mph - N/A   Clear
1:56 AM 60.1 °F 52.0 °F 75% 29.94 in 10.0 mi West 6.9 mph - N/A   Clear
2:56 AM 59.0 °F 52.0 °F 78% 29.95 in 10.0 mi WNW 6.9 mph - N/A   Clear
3:56 AM 57.0 °F 51.1 °F 81% 29.96 in 10.0 mi West 6.9 mph - N/A   Clear
4:56 AM 55.9 °F 51.1 °F 84% 29.98 in 10.0 mi WNW 6.9 mph - N/A   Clear
5:56 AM 55.0 °F 51.1 °F 86% 30.01 in 10.0 mi WNW 6.9 mph - N/A   Clear
6:56 AM 55.9 °F 50.0 °F 80% 30.04 in 10.0 mi West 8.1 mph - N/A   Clear
7:56 AM 57.0 °F 50.0 °F 77% 30.06 in 10.0 mi WNW 8.1 mph - N/A   Clear
8:56 AM 57.9 °F 50.0 °F 75% 30.08 in 10.0 mi WNW 9.2 mph - N/A   Clear
9:56 AM 61.0 °F 50.0 °F 67% 30.09 in 10.0 mi West 6.9 mph - N/A   Clear
10:56 AM 64.0 °F 48.9 °F 58% 30.10 in 10.0 mi WNW 9.2 mph - N/A   Clear
11:56 AM 64.9 °F 46.0 °F 50% 30.11 in 10.0 mi West 12.7 mph - N/A   Clear
12:56 PM 66.9 °F 46.9 °F 49% 30.11 in 10.0 mi WNW 13.8 mph 18.4 mph N/A   Clear
1:56 PM 66.9 °F 46.9 °F 49% 30.11 in 10.0 mi WNW 9.2 mph - N/A   Clear
2:56 PM 68.0 °F 46.9 °F 47% 30.11 in 10.0 mi Variable 5.8 mph - N/A   Clear
3:56 PM 69.1 °F 46.0 °F 44% 30.12 in 10.0 mi WNW 4.6 mph - N/A   Clear
4:56 PM 69.1 °F 46.9 °F 45% 30.14 in 10.0 mi Calm Calm - N/A   Clear
5:56 PM 69.1 °F 48.9 °F 49% 30.16 in 10.0 mi Calm Calm - N/A   Clear
6:56 PM 66.9 °F 48.0 °F 51% 30.17 in 10.0 mi Calm Calm - N/A   Clear
7:56 PM 61.0 °F 48.9 °F 64% 30.19 in 9.0 mi SSE 5.8 mph - N/A   Partly Cloudy
8:56 PM 57.9 °F 50.0 °F 75% 30.22 in 10.0 mi South 4.6 mph - N/A   Overcast
9:56 PM 57.9 °F 51.1 °F 78% 30.23 in 10.0 mi South 4.6 mph - N/A   Mostly Cloudy
10:56 PM 55.9 °F 50.0 °F 80% 30.25 in 10.0 mi South 3.5 mph - N/A   Scattered Clouds
11:56 PM 55.0 °F 50.0 °F 83% 30.25 in 10.0 mi Calm Calm - N/A   Clear